TimeEDT,TemperatureF,Dew PointF,Humidity,Sea Level PressureIn,VisibilityMPH,Wind Direction,Wind SpeedMPH,Gust SpeedMPH,PrecipitationIn,Events,Conditions,WindDirDegrees,DateUTC
12:15 AM,56.1,51.6,85,30.09,10.0,Calm,Calm,-,N/A,,Clear,0,2013-09-24 04:15:00
12:35 AM,54.0,49.5,85,30.09,10.0,Calm,Calm,-,N/A,,Clear,0,2013-09-24 04:35:00
12:55 AM,54.0,49.5,85,30.09,10.0,Calm,Calm,-,N/A,,Clear,0,2013-09-24 04:55:00
1:15 AM,52.7,48.4,85,30.09,10.0,Calm,Calm,-,N/A,,Clear,0,2013-09-24 05:15:00
1:35 AM,54.0,49.5,85,30.09,10.0,Calm,Calm,-,N/A,,Clear,0,2013-09-24 05:35:00
1:55 AM,52.7,48.4,85,30.09,10.0,Calm,Calm,-,N/A,,Clear,0,2013-09-24 05:55:00
2:15 AM,52.7,48.4,85,30.10,10.0,Calm,Calm,-,N/A,,Clear,0,2013-09-24 06:15:00
2:35 AM,52.7,48.4,85,30.09,10.0,Calm,Calm,-,N/A,,Clear,0,2013-09-24 06:35:00
2:55 AM,52.7,48.4,85,30.09,10.0,Calm,Calm,-,N/A,,Clear,0,2013-09-24 06:55:00
3:15 AM,52.7,48.4,85,30.08,10.0,Calm,Calm,-,N/A,,Clear,0,2013-09-24 07:15:00
3:35 AM,52.7,48.4,85,30.09,7.0,Calm,Calm,-,N/A,,Clear,0,2013-09-24 07:35:00
3:55 AM,52.7,48.4,85,30.09,10.0,Calm,Calm,-,N/A,,Clear,0,2013-09-24 07:55:00
4:15 AM,52.7,48.4,85,30.09,10.0,Calm,Calm,-,N/A,,Clear,0,2013-09-24 08:15:00
4:35 AM,50.2,45.9,85,30.09,10.0,Calm,Calm,-,N/A,,Clear,0,2013-09-24 08:35:00
4:55 AM,52.7,48.4,85,30.09,10.0,Calm,Calm,-,N/A,,Clear,0,2013-09-24 08:55:00
5:15 AM,50.2,45.9,85,30.09,10.0,Calm,Calm,-,N/A,,Clear,0,2013-09-24 09:15:00
5:35 AM,50.2,45.9,85,30.09,10.0,Calm,Calm,-,N/A,,Clear,0,2013-09-24 09:35:00
5:55 AM,50.2,45.9,85,30.09,10.0,Calm,Calm,-,N/A,,Clear,0,2013-09-24 09:55:00
6:15 AM,50.2,45.9,85,30.09,10.0,Calm,Calm,-,N/A,,Clear,0,2013-09-24 10:15:00
6:35 AM,50.2,45.9,85,30.10,10.0,Calm,Calm,-,N/A,,Clear,0,2013-09-24 10:35:00
6:55 AM,50.2,45.9,85,30.10,7.0,Calm,Calm,-,N/A,,Clear,0,2013-09-24 10:55:00
7:15 AM,50.2,45.9,85,30.11,10.0,Calm,Calm,-,N/A,,Clear,0,2013-09-24 11:15:00
7:35 AM,50.2,45.9,85,30.11,10.0,Calm,Calm,-,N/A,,Clear,0,2013-09-24 11:35:00
7:55 AM,52.7,48.4,85,30.11,10.0,Calm,Calm,-,N/A,,Clear,0,2013-09-24 11:55:00
8:15 AM,52.7,48.4,85,30.11,10.0,Calm,Calm,-,N/A,,Clear,0,2013-09-24 12:15:00
8:35 AM,56.5,52.0,85,30.11,10.0,Calm,Calm,-,N/A,,Clear,0,2013-09-24 12:35:00
8:55 AM,58.1,53.6,85,30.11,10.0,Calm,Calm,-,N/A,,Clear,0,2013-09-24 12:55:00
9:15 AM,60.4,55.8,85,30.11,10.0,Calm,Calm,-,N/A,,Clear,0,2013-09-24 13:15:00
9:35 AM,62.8,56.8,81,30.11,10.0,Calm,Calm,-,N/A,,Clear,0,2013-09-24 13:35:00
9:55 AM,63.0,56.1,78,30.11,10.0,NNE,3.5,-,N/A,,Clear,30,2013-09-24 13:55:00
10:15 AM,64.0,55.8,74,30.12,10.0,North,4.6,-,N/A,,Clear,360,2013-09-24 14:15:00
10:35 AM,64.4,53.6,68,30.11,10.0,NNW,3.5,-,N/A,,Clear,340,2013-09-24 14:35:00
10:55 AM,65.5,53.8,66,30.11,10.0,Calm,Calm,-,N/A,,Clear,0,2013-09-24 14:55:00
11:15 AM,65.8,54.0,65,30.11,10.0,Calm,Calm,-,N/A,,Clear,0,2013-09-24 15:15:00
11:35 AM,66.2,53.6,64,30.10,10.0,East,4.6,-,N/A,,Clear,90,2013-09-24 15:35:00
11:55 AM,68.0,54.0,61,30.09,10.0,Calm,Calm,-,N/A,,Clear,0,2013-09-24 15:55:00
12:15 PM,69.1,53.2,57,30.08,10.0,Calm,Calm,-,N/A,,Clear,0,2013-09-24 16:15:00
12:35 PM,68.7,52.7,57,30.08,10.0,NE,3.5,-,N/A,,Clear,40,2013-09-24 16:35:00
12:55 PM,72.3,55.4,55,30.07,10.0,NW,4.6,-,N/A,,Clear,320,2013-09-24 16:55:00
1:15 PM,73.0,55.0,53,30.06,10.0,Calm,Calm,-,N/A,,Clear,0,2013-09-24 17:15:00
1:55 PM,73.0,54.9,53,30.04,10.0,North,6.9,-,N/A,,Clear,360,2013-09-24 17:55:00
2:15 PM,73.0,54.7,52,30.03,10.0,East,3.5,-,N/A,,Clear,80,2013-09-24 18:15:00
2:35 PM,73.0,54.0,51,30.02,10.0,North,6.9,-,N/A,,Clear,360,2013-09-24 18:35:00
2:55 PM,73.0,54.7,52,30.01,10.0,NNW,5.8,-,N/A,,Clear,330,2013-09-24 18:55:00
3:15 PM,73.0,54.1,51,30.01,10.0,NNE,4.6,-,N/A,,Clear,20,2013-09-24 19:15:00
3:35 PM,73.0,54.9,53,30.00,10.0,NNE,5.8,-,N/A,,Clear,20,2013-09-24 19:35:00
3:55 PM,73.0,54.0,51,29.99,10.0,Calm,Calm,-,N/A,,Clear,0,2013-09-24 19:55:00
4:15 PM,73.0,54.1,51,29.99,10.0,NNE,4.6,-,N/A,,Clear,30,2013-09-24 20:15:00
4:35 PM,73.0,54.3,52,29.98,10.0,ENE,3.5,-,N/A,,Clear,60,2013-09-24 20:35:00
4:55 PM,73.0,54.5,52,29.98,10.0,NE,3.5,-,N/A,,Clear,40,2013-09-24 20:55:00
5:15 PM,73.0,55.2,53,29.99,10.0,Calm,Calm,-,N/A,,Clear,0,2013-09-24 21:15:00
5:35 PM,73.0,55.0,53,29.98,10.0,ENE,4.6,-,N/A,,Scattered Clouds,60,2013-09-24 21:35:00
5:55 PM,73.0,55.4,54,29.98,10.0,Calm,Calm,-,N/A,,Clear,0,2013-09-24 21:55:00
6:15 PM,73.0,57.9,59,29.98,10.0,Calm,Calm,-,N/A,,Clear,0,2013-09-24 22:15:00
6:35 PM,70.7,59.4,67,29.98,10.0,Calm,Calm,-,N/A,,Clear,0,2013-09-24 22:35:00
6:55 PM,68.0,60.4,77,29.98,10.0,Calm,Calm,-,N/A,,Clear,0,2013-09-24 22:55:00
7:15 PM,64.8,58.5,80,29.98,10.0,Calm,Calm,-,N/A,,Clear,0,2013-09-24 23:15:00
7:35 PM,63.3,57.7,82,29.97,10.0,Calm,Calm,-,N/A,,Clear,0,2013-09-24 23:35:00
7:55 PM,63.0,58.3,85,29.98,10.0,Calm,Calm,-,N/A,,Clear,0,2013-09-24 23:55:00
8:15 PM,62.2,57.6,85,29.99,10.0,Calm,Calm,-,N/A,,Clear,0,2013-09-25 00:15:00
8:35 PM,60.8,56.3,85,29.98,10.0,Calm,Calm,-,N/A,,Clear,0,2013-09-25 00:35:00
8:55 PM,60.4,55.8,85,29.99,10.0,Calm,Calm,-,N/A,,Clear,0,2013-09-25 00:55:00
9:15 PM,59.5,55.0,85,29.99,10.0,Calm,Calm,-,N/A,,Clear,0,2013-09-25 01:15:00
9:35 PM,60.4,55.9,85,29.99,10.0,Calm,Calm,-,N/A,,Clear,0,2013-09-25 01:35:00
9:55 PM,58.3,53.8,85,29.99,10.0,Calm,Calm,-,N/A,,Scattered Clouds,0,2013-09-25 01:55:00
10:15 PM,58.5,54.0,85,29.98,10.0,Calm,Calm,-,N/A,,Scattered Clouds,0,2013-09-25 02:15:00
10:35 PM,58.8,54.3,85,29.98,10.0,Calm,Calm,-,N/A,,Scattered Clouds,0,2013-09-25 02:35:00
10:55 PM,59.2,54.7,85,29.98,10.0,Calm,Calm,-,N/A,,Clear,0,2013-09-25 02:55:00
11:15 PM,59.0,54.3,84,29.98,10.0,Calm,Calm,-,N/A,,Clear,0,2013-09-25 03:15:00
11:35 PM,58.1,53.6,85,29.98,10.0,Calm,Calm,-,N/A,,Clear,0,2013-09-25 03:35:00
11:55 PM,58.1,53.6,85,29.98,10.0,Calm,Calm,-,N/A,,Clear,0,2013-09-25 03:55:00